CZ-3B R/B

Satellite information

Favourite Embed

Satellite Type and Status

ROCKET BODYIN ORBIT

Key statistics

Satellite CZ-3B R/B at a glance.

Uptime

4609

Days in orbit

Revolutions

≈ 3.9

Per day

Orbit

MEO

Medium Earth Orbit

Inclination

26.4

Latest

Satellite identification and parameters

Extended collection of information and parameters for CZ-3B R/B.

Object identification

Identified? True

Debris? False

Object name: CZ-3B R/B

International designator: 2013-020B

Object number (NORAD): 39158

Object ID (CCSDS): 39158

Country: PEOPLES REPUBLIC OF CHINA (PRC)

Current information (Y/N): Y

RCS size: LARGE

Orbital parameters

Period: 367.909 minutes

Inclination: 26.3908 deg

SMA: 17008.016 km

Apoapsis: 21062.2 km

Periapsis: 197.563 km

RAAN: 213.144 deg

Eccentricy: 0.61337656

Argument of periapsis: 359.0759 deg

Mean anomaly: 0.257 deg

Mean motion: 3.91401298 rev/day

Mean motion (dot): 0.00049308 rev/day2

B* drag term: 0.0016252041 1/REarth

Two-line elements (TLE)

Creation date: Dec. 12, 2025, 3:16 a.m.

Reference frame: TEME

Reference center: EARTH

Epoch: Dec. 11, 2025, 6:17 p.m. UTC

TLE line 0: 0 CZ-3B R/B

TLE line 1: 1 39158U 13020B 25345.76240218 .00049308 46481-6 16252-2 0 9992

TLE line 2: 2 39158 26.3908 213.1440 6133766 359.0759 0.2570 3.91401298119159

Live tracking on map

Real-time ground track for satellite CZ-3B R/B.

In-orbit conjunctions

A list of the most updated potential collisions computed for object CZ-3B R/B.

Target Orbit TCA Probability of collision Miss distance Type
SL-12 DEB HEO 2025-04-02 13:59:03 TBA 2486.0 (m) DEBRIS

Associated space launch

CZ-3B R/B was lifted into orbit during the mission ‘Long March 3B/E | Zhongxing 11’, on board a Long March 3B/E space rocket.

The launch took place on May 1, 2013, 4:06 p.m. from Launch Complex 2 (LC-2).

For more information about the launch, click the button.

Launch to space Long March 3B/E | Zhongxing 11
Long March 3B/E | Zhongxing 11

Agency: N/A

Status: Launch Successful

Launch date: May 1, 2013, 4:06 p.m. UTC

Rocket: Long March 3B/E

Launch pad: Launch Complex 2 (LC-2)

Location: Xichang Satellite Launch Center, People's Republic of China

...

Latest news about this satellite

There are no fresh news available about this satellite. Check back as we update our databases every day.


Newsletter sign-up

Weekly statistics, charts and insights to help you stay on top of the space industry.